OBJECT AK, 68449

Orbit data source: Space-Track

You're viewing an Uncataloged Satellite

Recently launched and/or uncataloged satellites may have evolving metadata. Metadata may include but not limited to: Owner, Maufacturer, Bus, Motor, and Mission.

OBJECT AK, 68449 is a satellite in SSO that was launched on Mon, 30 Mar 2026 UTC via an FALCON 9 launch vehicle from the Air Force Western Test Range (AFWTR). Unknown objects in Earth's orbit typically refer to objects detected orbiting the Earth but have not yet been identified or cataloged. These objects could be anything from previously untracked satellites, spent rocket stages, debris from satellite collisions, or even natural meteoroids temporarily captured by Earth's gravity.

Loading next visibility...
Identifier
68449, 2026-067AK
Orbit
SSO
Country
Flag of TBDTBD
Related business
None
Manufacturer
Unknown
Mission
Operational spacecraft
Bus & Motor
Unknown
Mass
Unknown
Launch date (UTC)
2026-03-30 (1 month ago)
Launch vehicle
FALCON 9
Launch site
Air Force Western Test Range (AFWTR)
Object type
Unknown
Shape & HBR
Unknown shape, 1.1 m
Radar Cross Section
RCS unknown

Expand to show TLE details & history
Last TLE update: 14 hours ago

TLE from 14 hours ago
0 OBJECT AK
1 68449U 26067AK  26127.15860458  .00006389  00000-0  32170-3 0  9999
2 68449  97.4495  86.1798 0003214 184.9247 175.1956 15.17536059  5714
Epoch: 2026-05-07T03:48Z
TLE epoch observation values (Epoch: 2026-05-07T03:48:23.435Z)
Latitude
Longitude
164.0734°
Altitude
518.583 km
Speed
7.603 km/s
True Right ascension
05h 44m 43s
True Declination
0° 00' 00"
Sunlit
Object was in daylight at epoch
Visualization orbit readout
Latitude
Unknown
Longitude
Unknown
Altitude
Unknown
Speed
Unknown
Apparent Right ascension
Unknown
Apparent Declination
Unknown
Sunlit
N/A
Visualization observer readout
Local Sidereal Time
01:57:48
Azimuth
Unknown
Elevation
Unknown
Doppler factor
Unknown
Orbital elements
Apogee altitude
512.475 km
Perigee altitude
508.047 km
Semi-major axis
6,888.398 km
Eccentricity
0.00032
Inclination
97.4495°
RAAN
86.1798°
Arg. of periapsis
184.9247°
True anomaly
175.19868°
Mean anomaly
175.1956°
Eccentric anomaly
175.19714°
Mean motion
3.79635 °/min
Orbital period
94.83 mins
BSTAR
0.0003217
Loading maneuver chart data...
Computing Atmospheric mass density...
Loading historical data...
Loading historical data...
Loading historical data...
Loading historical data...
Loading historical data...
Loading historical data...
Loading historical data...

Documentation

Showing up to 5 results
|